Location: Degersen
(52.2871°N, 9.5716°E)
Time: 23:16:53
(UTC+00:00)

GEOS 3 Rocket - Pass Details

Date: 20 January 2026
Orbit: 768 x 845 km, 115.0° (Epoch: 9 February)

Event Time Altitude Azimuth Distance (km) Brightness Sun altitude
Rises 04:05:07 0° 112° (ESE) 3,334 7.7 -29.1°
Reaches altitude 10° 04:07:27 10° 107° (ESE) 2,415 6.9 -28.7°
Maximum altitude 04:12:30 49° 34° (NE) 1,064 4.3 -28.0°
Enters shadow 04:13:40 42° 356° (N) 1,180 4.4 -27.8°
